Location: Hackbridge
(51.3833°N, 0.1500°W)
Time: 19:38:23
(UTC+00:00)

STARLINK-57 - Pass Details

Date: 13 October 2019
Orbit: 548 x 551 km, 53.0° (Epoch: 11 November)

Event Time Altitude Azimuth Distance (km) Brightness Sun altitude
Rises 19:46:54 0° 251° (WSW) 2,712 7.9 -24.6°
Reaches altitude 10° 19:49:08 10° 252° (WSW) 1,821 6.9 -24.9°
Enters shadow 19:52:20 53° 251° (WSW) 680 4.2 -25.4°
